This is the latest recevied weather packets stored in our database for station/object N2PUI. If no packets are shown the sender has not sent any weather packets the latest 10 day(s).
| Time | Temp. | Humidity | Pressure | Rain* | Wind** | Luminosity | Snow |
|---|---|---|---|---|---|---|---|
| 1777829086 | 10.56° C | 40% | 1012.8 hPa | 0 mm | - | 239 W/m² | - |
| 1777828783 | 10° C | 40% | 1012.6 hPa | 0 mm | - | 821 W/m² | - |
| 1777828479 | 10° C | 41% | 1012.4 hPa | 0 mm | - | 741 W/m² | - |
| 1777828177 | 10° C | 40% | 1012.7 hPa | 0 mm | - | 837 W/m² | - |
| 1777827873 | 10° C | 40% | 1012.9 hPa | 0 mm | - | 246 W/m² | - |
| 1777827570 | 10° C | 41% | 1012.8 hPa | 0 mm | - | 248 W/m² | - |
| 1777827268 | 10° C | 38% | 1012.8 hPa | 0 mm | - | 837 W/m² | - |
| 1777826964 | 10° C | 38% | 1013.1 hPa | 0 mm | - | 852 W/m² | - |
| 1777826661 | 10° C | 39% | 1013.1 hPa | 0 mm | - | 789 W/m² | - |
| 1777826358 | 11.11° C | 38% | 1012.9 hPa | 0 mm | - | 224 W/m² | - |
| 1777826055 | 10.56° C | 39% | 1012.8 hPa | 0 mm | - | 857 W/m² | - |
| 1777825752 | 10° C | 38% | 1013.1 hPa | 0 mm | - | 802 W/m² | - |
| 1777825450 | 10° C | 39% | 1013 hPa | 0 mm | - | 564 W/m² | - |
| 1777825146 | 8.89° C | 42% | 1013.4 hPa | 0 mm | - | 808 W/m² | - |
| 1777824843 | 8.89° C | 40% | 1013.6 hPa | 0 mm | - | 309 W/m² | - |
| 1777824540 | 9.44° C | 42% | 1013.5 hPa | 0 mm | - | 498 W/m² | - |
| 1777824236 | 8.89° C | 40% | 1013.4 hPa | 0 mm | - | 891 W/m² | - |
| 1777823931 | 8.33° C | 43% | 1013.5 hPa | 0 mm | - | 844 W/m² | - |
| 1777823629 | 8.89° C | 42% | 1013.5 hPa | 0 mm | - | 239 W/m² | - |
| 1777823326 | 8.89° C | 42% | 1013.7 hPa | 0 mm | - | 947 W/m² | - |
| 1777823024 | 8.89° C | 40% | 1013.7 hPa | 0 mm | - | 976 W/m² | - |
| 1777822721 | 8.33° C | 42% | 1013.8 hPa | 0 mm | - | 909 W/m² | - |
| 1777822419 | 8.89° C | 43% | 1013.9 hPa | 0 mm | - | 852 W/m² | - |
| 1777822117 | 9.44° C | 41% | 1013.6 hPa | 0 mm | - | 826 W/m² | - |
| 1777821814 | 8.89° C | 43% | 1013.8 hPa | 0 mm | - | 855 W/m² | - |
* Rain latest hour (hover to see other rain measurements)
** Current wind speed in m/s (hover to see current wind gust speed)